Regional Weather Roundup
Issued by NWS

Home | Current Version | Previous Version | Graphics & Text | Print | Product List | Glossary Off
Versions: 1 2 3 4 5 6 7 8 9 10 11 12 13 14 15 16 17 18 19 20 21 22 23 24 25 26 27 28 29 30 31 32 33 34 35 36 37 38 39 40 41 42 43 44 45 46 47 48 49 50

000
ASUS43 KTOP 120108
RWRKS

WEATHER ROUNDUP FOR KANSAS
NATIONAL WEATHER SERVICE GOODLAND KS
800 PM CDT FRI JUL 11 2014

NOTE:  "FAIR" INDICATES FEW OR NO CLOUDS BELOW 12,000 FEET WITH NO
SIGNIFICANT WEATHER AND/OR OBSTRUCTIONS TO VISIBILITY.

KSZ001>006-013>018-027>032-041>047-120200-
NORTHWEST KANSAS

CITY           SKY/WX    TMP DP  RH WIND       PRES   REMARKS
GOODLAND       SUNNY     91  50  24 S20       29.96R
HAYS           SUNNY     90  55  31 S16       29.95S
HILL CITY      SUNNY     93  56  28 S17G26    29.93R
RUSSELL        SUNNY     88  65  46 S13       29.95R
$$

KSZ061>065-074>080-084>089-120200-
SOUTHWEST KANSAS

CITY           SKY/WX    TMP DP  RH WIND       PRES   REMARKS
DODGE CITY     SUNNY     88  54  31 S18G26    30.00R
ELKHART          N/A     90  55  30 S15         N/A
GARDEN CITY    SUNNY     88  54  31 S17G25    29.99R
GREAT BEND     CLEAR     88  64  45 S10       29.97R
LIBERAL        SUNNY     91  54  27 S20G28    30.02R
PRATT          CLEAR     88  59  37 S12       30.02R
$$

KSZ066>073-081>083-090>101-120200-
SOUTHEAST KANSAS

CITY           SKY/WX    TMP DP  RH WIND       PRES   REMARKS
CHANUTE        CLEAR     85  69  58 S8        30.05R
COFFEYVILLE    CLEAR     87  71  58 S8        30.04R
HUTCHINSON     CLEAR     90  63  40 S15       29.99R
MEDICINE LODGE   N/A     89  62  40 S9        29.99R
NEWTON         CLEAR     88  61  40 S12       30.05R
PARSONS        CLEAR     86  70  58 S6        30.06R
WICHITA INTL   PTCLDY    88  64  44 S14       30.00R
WICHITA JABRA  CLEAR     86  67  52 S10       30.01R
WICHITA MCCONL CLEAR     88  64  45 SE13G21   30.02R
WINFIELD       CLEAR     86  70  58 SE8       30.03R
$$

KSZ007>012-019>026-033>040-048>060-102>105-120200-
NORTHEAST KANSAS

CITY           SKY/WX    TMP DP  RH WIND       PRES   REMARKS
CONCORDIA      CLEAR     90  66  45 S13       29.95R
EMPORIA        CLEAR     86  67  52 S10       30.02R
LAWRENCE       CLEAR     88  72  58 S9        29.99R
MANHATTAN      CLEAR     92  68  45 S12       29.96R HX  96
MARYSVILLE     CLEAR     90  68  48 S14       29.95R
OLATHE IND     PTCLDY    87  72  60 S10       30.02R
OLATHE EXE     PTCLDY    85  74  69 S9        30.01S
SALINA         PTCLDY    92  63  38 S15       29.96R
TOPEKA BILLARD CLEAR     91  72  53 S12       29.98R HX  98
TOPEKA FORBES  CLEAR     89  71  55 S10       30.00R HX  95
$$



USA.gov is the U.S. government's official web portal to all federal, state and local government web resources and services.